| time (UTC) | temp F | wind direction | speed MPH | gust MPH | rain 1hr in | rain 24hr in | rain mn in | humidity % | barometer mb |
| 20260504194702 | 76 | 247 | 11.0 | 18.0 | 0.00 | 0.00 | 0.00 | 20 | 1014.3 |
| 20260504193719 | 75 | 186 | 7.0 | 11.0 | 0.00 | 0.00 | 0.00 | 24 | 1014.4 |
| 20260504192716 | 75 | 200 | 5.0 | 11.0 | 0.00 | 0.00 | 0.00 | 24 | 1014.5 |
| 20260504191709 | 75 | 263 | 9.0 | 11.0 | 0.00 | 0.00 | 0.00 | 24 | 1014.6 |
| 20260504190703 | 74 | 230 | 7.0 | 12.0 | 0.00 | 0.00 | 0.00 | 25 | 1014.7 |
| 20260504185718 | 74 | 228 | 4.0 | 12.0 | 0.00 | 0.00 | 0.00 | 27 | 1015.0 |
| 20260504184709 | 73 | 179 | 6.0 | 13.0 | 0.00 | 0.00 | 0.00 | 28 | 1015.0 |
| 20260504183704 | 72 | 246 | 6.0 | 9.0 | 0.00 | 0.00 | 0.00 | 28 | 1015.1 |
| 20260504182702 | 71 | 237 | 5.0 | 9.0 | 0.00 | 0.00 | 0.00 | 29 | 1015.2 |
| 20260504181711 | 71 | 219 | 5.0 | 11.0 | 0.00 | 0.00 | 0.00 | 30 | 1015.3 |
| 20260504180706 | 71 | 246 | 7.0 | 10.0 | 0.00 | 0.00 | 0.00 | 31 | 1015.6 |
| 20260504175703 | 70 | 238 | 4.0 | 12.0 | 0.00 | 0.00 | 0.00 | 32 | 1015.8 |
| 20260504174701 | 70 | 235 | 6.0 | 14.0 | 0.00 | 0.00 | 0.00 | 33 | 1016.0 |
| 20260504173710 | 70 | 234 | 6.0 | 10.0 | 0.00 | 0.00 | 0.00 | 33 | 1016.1 |
| 20260504172707 | 70 | 243 | 7.0 | 11.0 | 0.00 | 0.00 | 0.00 | 34 | 1016.0 |
| 20260504171658 | 69 | 360 | 3.0 | 10.0 | 0.00 | 0.00 | 0.00 | 34 | 1016.3 |
| 20260504170713 | 69 | 197 | 8.0 | 13.0 | 0.00 | 0.00 | 0.00 | 35 | 1016.4 |
| 20260504150710 | 66 | 209 | 3.0 | 7.0 | 0.00 | 0.00 | 0.00 | 38 | 1016.5 |
| 20260504140713 | 66 | 239 | 1.0 | 9.0 | 0.00 | 0.00 | 0.00 | 36 | 1016.8 |
| 20260504130654 | 64 | 298 | 4.0 | 9.0 | 0.00 | 0.00 | 0.00 | 36 | 1015.7 |
| 20260504110653 | 64 | 94 | 6.0 | 8.0 | 0.00 | 0.00 | 0.00 | 41 | 1013.6 |
| 20260504081704 | 65 | 179 | 3.0 | 7.0 | 0.00 | 0.00 | 0.00 | 46 | 1014.1 |
| 20260504080657 | 65 | 151 | 5.0 | 8.0 | 0.00 | 0.00 | 0.00 | 47 | 1014.3 |
| 20260504050654 | 65 | 132 | 2.0 | 5.0 | 0.00 | 0.00 | 0.00 | 46 | 1014.7 |
| 20260504045649 | 65 | 146 | 4.0 | 6.0 | 0.00 | 0.00 | 0.00 | 47 | 1014.6 |
| 20260504043657 | 65 | 115 | 1.0 | 3.0 | 0.00 | 0.00 | 0.00 | 49 | 1014.7 |
| 20260504042651 | 65 | 133 | 2.0 | 4.0 | 0.00 | 0.00 | 0.00 | 49 | 1014.7 |
| 20260504041649 | 65 | 121 | 1.0 | 2.0 | 0.00 | 0.00 | 0.00 | 50 | 1014.7 |
| 20260504035700 | 65 | 121 | 1.0 | 4.0 | 0.00 | 0.00 | 0.00 | 50 | 1014.7 |
| 20260504033658 | 67 | 130 | 2.0 | 4.0 | 0.00 | 0.00 | 0.00 | 47 | 1014.7 |
| 20260504031654 | 68 | 153 | 0.0 | 2.0 | 0.00 | 0.00 | 0.00 | 44 | 1014.6 |
| 20260504025701 | 70 | 136 | 0.0 | 1.0 | 0.00 | 0.00 | 0.00 | 43 | 1014.5 |
| 20260504024656 | 70 | 107 | 0.0 | 1.0 | 0.00 | 0.00 | 0.00 | 44 | 1014.6 |
| 20260504022651 | 72 | 116 | 0.0 | 1.0 | 0.00 | 0.00 | 0.00 | 41 | 1014.5 |
| 20260504021646 | 73 | 211 | 0.0 | 1.0 | 0.00 | 0.00 | 0.00 | 39 | 1014.4 |
| 20260504015701 | 74 | 217 | 0.0 | 2.0 | 0.00 | 0.00 | 0.00 | 39 | 1014.3 |
| 20260504014651 | 74 | 203 | 0.0 | 1.0 | 0.00 | 0.00 | 0.00 | 39 | 1014.1 |
| 20260504013644 | 75 | 203 | 0.0 | 1.0 | 0.00 | 0.00 | 0.00 | 37 | 1014.2 |
| 20260504012656 | 75 | 203 | 0.0 | 3.0 | 0.00 | 0.00 | 0.00 | 36 | 1014.2 |
| 20260504011652 | 75 | 186 | 0.0 | 3.0 | 0.00 | 0.00 | 0.00 | 36 | 1014.2 |
| 20260504010650 | 75 | 198 | 1.0 | 4.0 | 0.00 | 0.00 | 0.00 | 35 | 1014.2 |
| 20260504004643 | 75 | 190 | 2.0 | 6.0 | 0.00 | 0.00 | 0.00 | 35 | 1014.5 |
| 20260504003655 | 75 | 174 | 4.0 | 8.0 | 0.00 | 0.00 | 0.00 | 34 | 1014.6 |
| 20260504002654 | 75 | 168 | 4.0 | 9.0 | 0.00 | 0.00 | 0.00 | 34 | 1014.7 |
| 20260504001644 | 75 | 192 | 4.0 | 9.0 | 0.00 | 0.00 | 0.00 | 34 | 1014.8 |
| 20260504000659 | 75 | 173 | 6.0 | 10.0 | 0.00 | 0.00 | 0.00 | 34 | 1014.9 |
| 20260503235655 | 75 | 167 | 5.0 | 10.0 | 0.00 | 0.00 | 0.00 | 33 | 1014.9 |
| 20260503234643 | 75 | 157 | 5.0 | 10.0 | 0.00 | 0.00 | 0.00 | 33 | 1015.2 |
| 20260503233656 | 75 | 165 | 7.0 | 11.0 | 0.00 | 0.00 | 0.00 | 33 | 1015.1 |
| 20260503232652 | 75 | 175 | 5.0 | 12.0 | 0.00 | 0.00 | 0.00 | 33 | 1015.1 |
| 20260503231640 | 75 | 196 | 7.0 | 11.0 | 0.00 | 0.00 | 0.00 | 34 | 1015.3 |
| 20260503230658 | 75 | 204 | 7.0 | 11.0 | 0.00 | 0.00 | 0.00 | 34 | 1015.5 |
| 20260503225653 | 75 | 194 | 3.0 | 11.0 | 0.00 | 0.00 | 0.00 | 34 | 1015.4 |
| 20260503224648 | 74 | 134 | 4.0 | 12.0 | 0.00 | 0.00 | 0.00 | 34 | 1015.8 |
| 20260503223639 | 75 | 161 | 3.0 | 11.0 | 0.00 | 0.00 | 0.00 | 35 | 1016.0 |
| 20260503222655 | 75 | 190 | 4.0 | 14.0 | 0.00 | 0.00 | 0.00 | 34 | 1016.1 |
| 20260503220639 | 75 | 236 | 5.0 | 9.0 | 0.00 | 0.00 | 0.00 | 34 | 1016.6 |
| 20260503215655 | 75 | 210 | 2.0 | 5.0 | 0.00 | 0.00 | 0.00 | 35 | 1016.7 |
| 20260503214646 | 75 | 164 | 2.0 | 12.0 | 0.00 | 0.00 | 0.00 | 34 | 1016.9 |
| 20260503211656 | 75 | 172 | 6.0 | 12.0 | 0.00 | 0.00 | 0.00 | 34 | 1017.8 |
| 20260503210654 | 75 | 167 | 5.0 | 13.0 | 0.00 | 0.00 | 0.00 | 35 | 1018.1 |
| 20260503205645 | 75 | 161 | 4.0 | 14.0 | 0.00 | 0.00 | 0.00 | 34 | 1018.2 |
| 20260503204641 | 74 | 186 | 7.0 | 11.0 | 0.00 | 0.00 | 0.00 | 34 | 1017.8 |
| 20260503203655 | 74 | 171 | 5.0 | 12.0 | 0.00 | 0.00 | 0.00 | 35 | 1018.0 |
| 20260503202645 | 73 | 181 | 4.0 | 14.0 | 0.00 | 0.00 | 0.00 | 34 | 1018.4 |
| 20260503201644 | 73 | 159 | 8.0 | 12.0 | 0.00 | 0.00 | 0.00 | 35 | 1018.6 |
| 20260503200642 | 73 | 167 | 9.0 | 14.0 | 0.00 | 0.00 | 0.00 | 34 | 1018.6 |
| 20260503195653 | 73 | 154 | 6.0 | 12.0 | 0.00 | 0.00 | 0.00 | 33 | 1018.7 |